This demonstration page uses our WeatherBlox Daily Observations layout. Learn more.

Left ArrowRight Arrow

Hourly Observations for June 27, 2018

Temp ( °F °C ) Dew Point ( °F °C ) Humidity (%) Winds ( mph kmh ) Pressure ( in mb ) Visibility ( mi km ) Precip ( " mm )
12:53 am 00:53 Clear 71 21.7 66 18.9 84 84 SSE 8 13 29.85 1011 10 16 0.00 0.00
1:53 am 01:53 Clear 70 21.1 66 18.9 87 87 SE 7 11 29.86 1011 10 16 0.00 0.00
2:53 am 02:53 Clear 70 21.1 66 18.9 87 87 SE 6 9 29.85 1011 10 16 0.00 0.00
3:53 am 03:53 Clear 69 20.6 66 18.9 90 90 SSE 6 9 29.83 1010 10 16 0.00 0.00
4:53 am 04:53 Clear 66 18.9 65 18.3 96 96 SE 3 6 29.82 1010 10 16 0.00 0.00
5:53 am 05:53 Clear 69 20.6 65 18.3 87 87 SE 7 11 29.80 1009 10 16 0.00 0.00
6:53 am 06:53 Sunny 70 21.1 65 18.3 84 84 SE 9 15 29.80 1009 10 16 0.00 0.00
7:53 am 07:53 Sunny 72 22.2 66 18.9 82 82 ESE 7 11 29.81 1010 10 16 0.00 0.00
8:53 am 08:53 Sunny 74 23.3 68 20 82 82 SE 14 22 29.81 1010 10 16 0.00 0.00
9:53 am 09:53 Sunny 77 25 70 21.1 79 79 SE 12 19 29.81 1010 10 16 0.00 0.00
10:53 am 10:53 Sunny 80 26.7 71 21.7 74 74 E 13 20 29.84 1010 10 16 0.00 0.00
11:53 am 11:53 Sunny 82 27.8 72 22.2 72 72 E 15 24 29.83 1010 10 16 0.00 0.00
12:53 pm 12:53 Mostly Sunny 83 28.3 71 21.7 67 67 E 14 22 29.83 1010 10 16 0.00 0.00
1:53 pm 13:53 Mostly Cloudy 83 28.3 72 22.2 70 70 SE 13 20 29.82 1010 10 16 0.00 0.00
2:26 pm 14:26 Partly Cloudy 84 29 73 23 70 70 SE 10 17 29.77 1008 10 16 0.00 0.00
2:53 pm 14:53 Partly Cloudy 86 30 74 23.3 67 67 ESE 13 20 29.80 1009 10 16 0.00 0.00
3:53 pm 15:53 Partly Cloudy 85 29.4 74 23.3 70 70 E 10 17 29.80 1009 10 16 0.00 0.00
4:53 pm 16:53 Mostly Sunny 86 30 75 23.9 70 70 VRB 5 7 29.80 1009 10 16 0.00 0.00
5:53 pm 17:53 Sunny 88 31.1 76 24.4 68 68 S 8 13 29.78 1009 10 16 0.00 0.00
6:53 pm 18:53 Sunny 87 30.6 77 25 72 72 VRB 5 7 29.78 1008 10 16 0.00 0.00
7:53 pm 19:53 Sunny 85 29.4 77 25 77 77 E 9 15 29.78 1009 10 16 0.00 0.00
8:53 pm 20:53 Sunny 82 27.8 77 25 85 85 E 9 15 29.80 1009 10 16 0.00 0.00
9:53 pm 21:53 Clear 79 26.1 76 24.4 90 90 E 9 15 29.80 1009 10 16 0.00 0.00
10:53 pm 22:53 Clear 77 25 74 23.3 90 90 E 8 13 29.81 1010 10 16 0.00 0.00
11:53 pm 23:53 Clear 76 24.4 73 22.8 91 91 E 9 15 29.82 1010 10 16 0.00 0.00

Powered by AerisWeather